This demonstration page uses our WeatherBlox Daily Observations layout. Learn more.

Left ArrowRight Arrow

Hourly Observations for December 2, 2020

Temp ( °F °C ) Dew Point ( °F °C ) Humidity (%) Winds ( mph kmh ) Pressure ( in mb ) Visibility ( mi km ) Precip ( " mm )
12:54 am 00:54 Clear 26 -3.3 18 -7.8 71 71 NNW 6 9 30.22 1023 10 16.0934 0 0
1:54 am 01:54 Clear 25 -3.9 17 -8.3 72 72 NNW 7 11 30.22 1024 10 16.0934 0 0
2:54 am 02:54 Clear 23 -5 16 -8.9 74 74 NNW 7 11 30.25 1024 10 16.0934 0 0
3:54 am 03:54 Clear 22 -5.6 17 -8.3 82 82 N 9 15 30.27 1025 10 16.0934 0 0
4:54 am 04:54 Clear 20 -6.7 15 -9.4 81 81 N 6 9 30.29 1026 10 16.0934 0 0
5:54 am 05:54 Clear 19 -7.2 14 -10 81 81 N 6 9 30.31 1026 10 16.0934 0 0
6:54 am 06:54 Clear 20 -6.7 14 -10 78 78 N 5 7 30.33 1027 10 16.0934 0 0
7:54 am 07:54 Sunny 23 -5 16 -8.9 74 74 NNW 5 7 30.36 1028 10 16.0934 0 0
8:54 am 08:54 Sunny 27 -2.8 18 -7.8 69 69 N 9 15 30.39 1029 10 16.0934 0 0
9:54 am 09:54 Sunny 32 0 19 -7.2 59 59 N 9 15 30.41 1030 10 16.0934 0 0
10:54 am 10:54 Partly Cloudy 35 1.7 20 -6.7 54 54 N 9 15 30.42 1030 10 16.0934 0 0
11:54 am 11:54 Cloudy 36 2.2 19 -7.2 50 50 N 10 17 30.41 1030 10 16.0934 0 0
12:54 pm 12:54 Cloudy 39 3.9 20 -6.7 46 46 NNE 9 15 30.4 1030 10 16.0934 0 0
1:54 pm 13:54 Cloudy 42 5.6 21 -6.1 43 43 NNE 9 15 30.39 1029 10 16.0934 0 0
2:54 pm 14:54 Mostly Cloudy 44 6.7 22 -5.6 41 41 N 13 20 30.37 1029 10 16.0934 0 0
3:54 pm 15:54 Sunny 40 4.4 22 -5.6 49 49 NNE 8 13 30.38 1029 10 16.0934 0 0
4:54 pm 16:54 Mostly Sunny 38 3.3 23 -5 55 55 N 12 19 30.39 1029 10 16.0934 0 0
5:54 pm 17:54 Partly Cloudy 36 2.2 23 -5 59 59 N 12 19 30.42 1030 10 16.0934 0 0
6:54 pm 18:54 Cloudy 37 2.8 24 -4.4 59 59 N 14 22 30.44 1031 10 16.0934 0 0
7:54 pm 19:54 Cloudy 33 0.6 24 -4.4 70 70 N 20 31 30.44 1031 10 16.0934 0 0
8:54 pm 20:54 Cloudy 31 -0.6 23 -5 72 72 N 10 17 30.43 1031 10 16.0934 0 0
9:54 pm 21:54 Mostly Cloudy 28 -2.2 22 -5.6 78 78 N 6 9 30.45 1031 10 16.0934 0 0
10:54 pm 22:54 Clear 26 -3.3 22 -5.6 84 84 N 5 7 30.44 1031 10 16.0934 0 0
11:49 pm 23:49 Mostly Cloudy 27 -3 23 -5 86 86 N 15 24 30.47 1032 10 16.0934 0 0
11:54 pm 23:54 Mostly Cloudy 27 -2.8 23 -5 85 85 N 16 26 30.42 1030 10 16.0934 0 0

Powered by AerisWeather